Location: Nitra
(0.0000°N, 18.0833°E)
Time: 16:24:12
(UTC+02:00)

Vanguard 3 - All Passes

Search period start: 30 March 2023 00:00
Search period end: 09 April 2023 00:00
Orbit: 508 x 3249 km, 33.4° (Epoch: 30 March)

Date Brightness Start Highest point End Pass type
(mag) Time Alt. Az. Time Alt. Az. Time Alt. Az.
30 Mar - 02:08:19 10° WNW 02:20:41 29° NNW 02:36:25 10° NNE visible
30 Mar - 04:31:19 10° NW 04:42:41 18° N 04:53:49 10° NNE visible
30 Mar - 06:52:54 10° NNW 07:05:10 21° NNE 07:14:46 10° NE daylight
30 Mar - 09:09:26 10° NW 09:23:20 41° NNE 09:31:39 10° E daylight
30 Mar - 11:26:14 10° WNW 11:37:06 61° SW 11:43:09 10° SE daylight
30 Mar - 20:28:23 10° S 20:33:04 19° SE 20:39:36 10° E visible
30 Mar - 22:36:47 10° SW 22:45:11 86° SE 23:00:32 10° NE visible
31 Mar - 00:49:50 10° W 01:00:56 39° NNW 01:17:28 10° NE visible
31 Mar - 03:09:20 10° NW 03:21:02 21° NNW 03:34:05 10° NNE visible
31 Mar - 05:32:30 10° NNW 05:44:13 18° N 05:54:35 10° NE visible
31 Mar - 07:50:23 10° NNW 08:04:42 30° NNE 08:14:27 10° ENE daylight
31 Mar - 10:06:46 10° NW 10:20:39 75° NE 10:28:12 10° ESE daylight
31 Mar - 12:25:47 10° W 12:32:37 23° SW 12:37:17 10° S daylight
31 Mar - 21:22:02 10° SSW 21:28:41 47° SE 21:40:19 10° ENE visible
31 Mar - 23:32:54 10° WSW 23:42:17 55° NNW 23:58:19 10° NE visible
01 Apr - 01:48:58 10° WNW 02:00:12 26° NNW 02:14:42 10° NNE visible
01 Apr - 04:11:15 10° NW 04:22:25 17° N 04:33:36 10° NE visible
01 Apr - 06:31:04 10° NNW 06:44:53 24° NNE 06:55:42 10° ENE visible
01 Apr - 08:47:31 10° NW 09:03:04 49° NNE 09:12:15 10° E daylight
01 Apr - 11:05:04 10° WNW 11:16:51 54° SW 11:23:28 10° SE daylight
01 Apr - 20:08:28 10° S 20:12:54 20° SE 20:19:09 10° E visible
01 Apr - 22:17:07 10° WSW 22:24:46 84° NW 22:38:55 10° NE visible
02 Apr - 00:30:26 10° W 00:40:28 33° NNW 00:55:30 10° NE visible
02 Apr - 02:49:58 10° NW 03:00:41 19° N 03:12:51 10° NNE visible
02 Apr - 05:11:21 10° NNW 05:23:53 19° N 05:35:12 10° NE visible
02 Apr - 07:28:22 10° NW 07:44:17 35° NNE 07:55:07 10° E daylight
02 Apr - 09:45:06 10° NW 10:00:17 86° NE 10:08:34 10° SE daylight
02 Apr - 12:05:13 10° W 12:12:26 22° SW 12:17:24 10° S daylight
02 Apr - 21:02:17 10° SW 21:08:22 53° SE 21:19:10 10° ENE visible
02 Apr - 23:13:24 10° W 23:21:54 47° NNW 23:36:24 10° NE night (unlit)
03 Apr - 01:29:47 10° WNW 01:39:48 22° NNW 01:52:49 10° NNE visible
03 Apr - 03:51:08 10° NNW 04:02:06 17° N 04:13:22 10° NE visible
03 Apr - 06:09:18 10° NNW 06:24:24 27° NNE 06:36:23 10° ENE visible
03 Apr - 08:25:34 10° NW 08:42:33 57° NNE 08:52:41 10° ESE daylight
03 Apr - 10:43:47 10° WNW 10:56:26 49° SW 11:03:41 10° SSE daylight
03 Apr - 19:48:33 10° S 19:52:44 22° SE 19:58:42 10° E visible
03 Apr - 21:57:31 10° WSW 22:04:28 72° NNW 22:17:17 10° NE visible
04 Apr - 00:11:11 10° WNW 00:20:08 28° NNW 00:33:24 10° NNE visible
04 Apr - 02:30:40 10° NW 02:40:22 17° N 02:51:32 10° NNE visible
04 Apr - 04:50:11 10° NNW 05:03:25 21° NNE 05:15:39 10° ENE visible
04 Apr - 07:06:24 10° NW 07:23:40 41° NNE 07:35:34 10° E daylight
04 Apr - 09:23:22 10° NW 09:39:42 85° SW 09:48:47 10° SE daylight
04 Apr - 11:44:34 10° W 11:52:09 21° SW 11:57:26 10° S daylight
04 Apr - 20:42:33 10° SW 20:48:07 61° SE 20:58:01 10° ENE visible
04 Apr - 22:54:00 10° W 23:01:38 39° NNW 23:14:24 10° NE visible
05 Apr - 01:10:45 10° NW 01:19:31 19° N 01:30:47 10° NNE visible
05 Apr - 03:30:56 10° NNW 03:41:44 17° N 03:53:06 10° NE visible
05 Apr - 05:47:35 10° NNW 06:03:42 30° NNE 06:16:49 10° ENE visible
05 Apr - 08:03:37 10° NW 08:21:49 65° NNE 08:32:54 10° ESE daylight
05 Apr - 10:22:26 10° WNW 10:35:53 45° SW 10:43:46 10° SSE daylight
05 Apr - 19:28:36 10° SSW 19:32:34 24° SE 19:38:15 10° E visible
05 Apr - 21:37:58 10° WSW 21:44:15 60° NNW 21:55:38 10° NE visible
05 Apr - 23:52:05 10° WNW 23:59:54 23° NNW 00:11:10 10° NNE visible
06 Apr - 02:11:24 10° NNW 02:20:05 16° N 02:30:08 10° NNE visible
06 Apr - 04:29:02 10° NNW 04:42:48 23° NNE 04:55:54 10° ENE visible
06 Apr - 06:44:29 10° NW 07:02:47 46° NNE 07:15:47 10° E daylight
06 Apr - 09:01:35 10° WNW 09:18:54 77° SW 09:28:51 10° SE daylight
06 Apr - 11:23:48 10° W 11:31:45 20° SW 11:37:24 10° S daylight
06 Apr - 20:22:49 10° SW 20:27:56 72° SE 20:36:54 10° ENE visible
06 Apr - 22:34:43 10° W 22:41:29 31° NNW 22:52:21 10° NE visible
07 Apr - 00:51:56 10° NW 00:59:18 16° N 01:08:35 10° NNE visible
07 Apr - 03:10:38 10° NNW 03:21:17 18° N 03:32:46 10° NE visible
07 Apr - 05:25:56 10° NNW 05:42:48 33° NNE 05:57:00 10° E visible
07 Apr - 07:41:42 10° NW 08:00:49 73° NE 08:12:56 10° ESE daylight
07 Apr - 10:01:02 10° WNW 10:15:09 41° SW 10:23:43 10° SSE daylight
07 Apr - 19:08:38 10° SSW 19:12:25 27° SE 19:17:49 10° E visible
07 Apr - 21:18:28 10° WSW 21:24:08 48° NNW 21:34:00 10° NE visible
07 Apr - 23:33:12 10° NW 23:39:46 19° NNW 23:48:48 10° NNE visible
08 Apr - 01:52:09 10° NNW 01:59:49 15° N 02:08:41 10° NNE visible
08 Apr - 04:07:53 10° NNW 04:22:01 24° NNE 04:35:58 10° ENE visible
08 Apr - 06:22:38 10° NW 06:41:41 52° NNE 06:55:46 10° ESE visible
08 Apr - 08:39:49 10° WNW 08:57:54 70° SW 09:08:46 10° SE daylight
08 Apr - 11:02:58 10° W 11:11:17 19° SW 11:17:17 10° S daylight
08 Apr - 20:03:06 10° SW 20:07:49 88° SE 20:15:49 10° NE visible
08 Apr - 22:15:35 10° WNW 22:21:25 25° NNW 22:30:16 10° NNE visible
